Home   Weather   Varel   Past weeks

Flag for Germany Past Weather in Varel, Lower Saxony, Germany — Yesterday and Last 2 Weeks

Now
55 °F

Cool.


Feels Like: 54 °F
Forecast: 48 / 55 °F
Wind: 7 mph from South

Location: Wittmundhaven

Current Time: Oct 21, 2017 at 8:12:30 pm

Latest Report: Oct 21, 2017 at 7:20 pm


Visibility: 4 mi

Pressure: 29.77 "Hg

Humidity: 94%

Dew Point: 54 °F

Location of VarelLocation

Past Weather in Varel — Graph

°F

Varel Temperature Yesterday

Maximum temperature yesterday: 63 °F (at 2:20 pm)
Minimum temperature yesterday: 54 °F (at 1:20 am)
Average temperature yesterday: 57 °F

High & Low Weather Summary for the Past Weeks

 TemperatureHumidityPressure
High70 °F (Oct 15, 3:20 pm)100% (Oct 7, 2:20 pm)30.27 "Hg (Oct 7, 2:20 pm)
Low43 °F (Oct 9, 5:01 am)55% (Oct 8, 1:20 pm)29.68 "Hg (Oct 7, 6:20 pm)
Average56 °F86%29.97 "Hg
* Reported Oct 6 6:20 pm — Oct 21 6:20 pm, Varel. Weather by CustomWeather, © 2017

Note: Actual official high and low records may vary slightly from our data, if they occured in-between our weather recording intervals... More about our weather records

Advertising

Varel Weather History for the Previous 24 Hours

Scroll right to see more
 ConditionsComfort  
Time TempWeatherWind HumidityBarometerVisibility
6:20 pm
Sat, Oct 21
55 °FCool.7 mph94%29.77 "HgN/A
5:20 pm57 °FCool.8 mph88%29.77 "HgN/A
4:20 pm57 °FCool.10 mph88%29.77 "HgN/A
3:20 pm55 °FBroken clouds.10 mph94%29.77 "Hg5 mi
2:42 pm54 °FPartly sunny.10 mph94%29.77 "Hg4 mi
2:20 pm54 °FDrizzle. Fog.10 mph94%29.80 "Hg3 mi
1:28 pm54 °FDrizzle. Fog.10 mph94%29.80 "Hg2 mi
1:01 pm54 °FDrizzle. Fog.12 mph88%29.80 "Hg2 mi
12:40 pm52 °FDrizzle. Fog.10 mph94%29.80 "Hg3 mi
12:20 pm52 °FDrizzle. Fog.10 mph94%29.80 "Hg2 mi
12:01 pm54 °FLight rain. Fog.13 mph82%29.80 "Hg3 mi
11:20 am54 °FLight rain. Broken clouds.10 mph82%29.80 "HgN/A
10:20 am52 °FBroken clouds.10 mph88%29.83 "HgN/A
9:20 am52 °FLight rain. Partly sunny.8 mph82%29.83 "HgN/A
8:20 am50 °FPartly sunny.7 mph88%29.83 "HgN/A
7:20 am50 °FPassing clouds.6 mph94%29.83 "HgN/A
6:30 am50 °FPartly cloudy.7 mph88%29.83 "HgN/A
5:20 am52 °FCool.9 mph88%29.83 "HgN/A
4:20 am52 °FCool.8 mph88%29.83 "HgN/A
3:20 am54 °FCool.9 mph94%29.83 "Hg6 mi
2:20 am54 °FCool.9 mph94%29.83 "Hg6 mi
1:20 am54 °FCool.13 mph88%29.80 "HgN/A
12:20 am54 °FCool.13 mph88%29.80 "Hg5 mi
11:20 pm
Fri, Oct 20
54 °FCool.15 mph88%29.80 "HgN/A
10:20 pm54 °FCool.14 mph94%29.80 "HgN/A
9:20 pm54 °FCool.13 mph94%29.77 "HgN/A
8:20 pm54 °FCool.12 mph94%29.77 "HgN/A
Weather by CustomWeather, © 2017

See weather overview